User: anonymous
Location: Albany
(35.0000°S, 118.0000°E)
Time: 17:37:59
(UTC-04:00)
Language:

Cosmos 1758 Rocket - Orbit

View from above orbital plane
View from above orbital plane
View from above satellite
View from above satellite

Ground track
Ground track

The orbit data is extracted from the following two-line orbital elements,

1 16792U 86046B   14211.79393949  .00000192  00000-0  20764-4 0  5273
2 16792 082.4838 112.3754 0025501 154.4968 264.6613 14.82589123518918
Epoch (UTC): 30 July 2014 19:03:16
Eccentricity: 0.0025501
inclination: 82.4838°
perigee height: 603 km
apogee height: 639 km
right ascension of ascending node: 112.3754°
argument of perigee: 154.4968°
revolutions per day: 14.82589123
mean anomaly at epoch: 264.6613°
orbit number at epoch: 51891

The dashed part of the orbit path shows where the satellite is in the earth's shadow,  

DLR